Time,TemperatureF,DewpointF,PressureIn,WindDirection,WindDirectionDegrees,WindSpeedMPH,WindSpeedGustMPH,Humidity,HourlyPrecipIn,Conditions,Clouds,dailyrainin,SoftwareType,DateUTC
2013-04-13 00:02:00,37.0,33.0,29.90,West,263,10.0,-999.0,85,-99.99,,,-99.99,,2013-04-13 05:02:00,
2013-04-13 00:12:00,37.0,33.0,29.90,West,263,10.0,-999.0,85,-99.99,,,-99.99,,2013-04-13 05:12:00,
2013-04-13 00:22:00,36.0,33.0,29.91,West,279,7.0,-999.0,88,-99.99,,,-99.99,,2013-04-13 05:22:00,
2013-04-13 00:32:00,35.0,33.0,29.91,West,261,7.0,-999.0,91,-99.99,,,-99.99,,2013-04-13 05:32:00,
2013-04-13 00:42:00,35.0,33.0,29.91,West,261,7.0,-999.0,91,-99.99,,,-99.99,,2013-04-13 05:42:00,
2013-04-13 00:52:00,36.0,34.0,29.91,West,261,6.0,-999.0,92,-99.99,,,-99.99,,2013-04-13 05:52:00,
2013-04-13 01:02:00,36.0,34.0,29.91,West,261,6.0,-999.0,92,-99.99,,,-99.99,,2013-04-13 06:02:00,
2013-04-13 01:12:00,36.0,34.0,29.91,West,261,6.0,-999.0,92,-99.99,,,-99.99,,2013-04-13 06:12:00,
2013-04-13 01:23:00,36.0,33.0,29.91,WSW,239,7.0,-999.0,89,-99.99,,,-99.99,,2013-04-13 06:23:00,
2013-04-13 01:49:00,36.0,33.0,29.91,West,261,9.0,-999.0,89,-99.99,,,-99.99,,2013-04-13 06:49:00,
2013-04-13 01:55:00,36.0,33.0,29.91,WSW,250,7.0,-999.0,90,-99.99,,,-99.99,,2013-04-13 06:55:00,
2013-04-13 02:04:00,36.0,33.0,29.91,WSW,242,7.0,-999.0,89,-99.99,,,-99.99,,2013-04-13 07:04:00,
2013-04-13 02:14:00,36.0,33.0,29.91,WSW,242,7.0,-999.0,89,-99.99,,,-99.99,,2013-04-13 07:14:00,
2013-04-13 02:24:00,36.0,33.0,29.91,WSW,244,6.0,-999.0,90,-99.99,,,-99.99,,2013-04-13 07:24:00,
2013-04-13 02:34:00,36.0,33.0,29.90,SW,228,7.0,-999.0,89,-99.99,,,-99.99,,2013-04-13 07:34:00,
2013-04-13 02:44:00,36.0,33.0,29.90,SW,228,7.0,-999.0,89,-99.99,,,-99.99,,2013-04-13 07:44:00,
2013-04-13 02:55:00,36.0,33.0,29.89,WSW,239,9.0,-999.0,87,-99.99,,,-99.99,,2013-04-13 07:55:00,
2013-04-13 03:05:00,36.0,33.0,29.89,WSW,250,8.0,-999.0,88,-99.99,,,-99.99,,2013-04-13 08:05:00,
2013-04-13 03:15:00,36.0,33.0,29.89,WSW,250,8.0,-999.0,88,-99.99,,,-99.99,,2013-04-13 08:15:00,
2013-04-13 03:25:00,36.0,33.0,29.89,WSW,242,7.0,-999.0,87,-99.99,,,-99.99,,2013-04-13 08:25:00,
2013-04-13 03:34:00,36.0,33.0,29.89,WSW,241,7.0,-999.0,87,-99.99,,,-99.99,,2013-04-13 08:34:00,
2013-04-13 03:45:00,36.0,33.0,29.89,WSW,241,7.0,-999.0,87,-99.99,,,-99.99,,2013-04-13 08:45:00,
2013-04-13 03:54:00,36.0,33.0,29.89,WSW,246,7.0,-999.0,88,-99.99,,,-99.99,,2013-04-13 08:54:00,
2013-04-13 04:04:00,35.0,31.0,29.89,West,273,10.0,-999.0,86,-99.99,,,-99.99,,2013-04-13 09:04:00,
2013-04-13 04:14:00,35.0,31.0,29.89,West,273,10.0,-999.0,86,-99.99,,,-99.99,,2013-04-13 09:14:00,
2013-04-13 04:24:00,35.0,31.0,29.90,West,263,10.0,-999.0,85,-99.99,,,-99.99,,2013-04-13 09:24:00,
2013-04-13 04:35:00,35.0,31.0,29.90,WSW,254,9.0,-999.0,86,-99.99,,,-99.99,,2013-04-13 09:35:00,
2013-04-13 04:48:00,35.0,31.0,29.90,WSW,254,9.0,-999.0,86,-99.99,,,-99.99,,2013-04-13 09:48:00,
2013-04-13 04:55:00,35.0,31.0,29.90,WSW,257,8.0,-999.0,86,-99.99,,,-99.99,,2013-04-13 09:55:00,
2013-04-13 05:04:00,35.0,31.0,29.90,WSW,248,8.0,-999.0,86,-99.99,,,-99.99,,2013-04-13 10:04:00,
2013-04-13 05:15:00,35.0,31.0,29.90,West,265,9.0,-999.0,85,-99.99,,,-99.99,,2013-04-13 10:15:00,
2013-04-13 05:24:00,35.0,31.0,29.90,West,265,9.0,-999.0,85,-99.99,,,-99.99,,2013-04-13 10:24:00,
2013-04-13 05:35:00,35.0,30.0,29.90,West,267,9.0,-999.0,83,-99.99,,,-99.99,,2013-04-13 10:35:00,
2013-04-13 05:45:00,35.0,30.0,29.90,West,267,9.0,-999.0,83,-99.99,,,-99.99,,2013-04-13 10:45:00,
2013-04-13 05:55:00,35.0,30.0,29.90,WSW,248,9.0,-999.0,81,-99.99,,,-99.99,,2013-04-13 10:55:00,
2013-04-13 06:05:00,35.0,30.0,29.90,WSW,252,9.0,-999.0,81,-99.99,,,-99.99,,2013-04-13 11:05:00,
2013-04-13 06:13:00,35.0,30.0,29.90,WSW,252,9.0,-999.0,81,-99.99,,,-99.99,,2013-04-13 11:13:00,
2013-04-13 06:33:00,34.0,29.0,29.91,WSW,248,10.0,-999.0,81,-99.99,,,-99.99,,2013-04-13 11:33:00,
2013-04-13 06:44:00,34.0,29.0,29.91,WSW,248,10.0,-999.0,81,-99.99,,,-99.99,,2013-04-13 11:44:00,
2013-04-13 06:54:00,34.0,29.0,29.91,WSW,247,11.0,-999.0,81,-99.99,,,-99.99,,2013-04-13 11:54:00,
2013-04-13 07:08:00,34.0,29.0,29.91,WSW,252,9.0,-999.0,82,-99.99,,,-99.99,,2013-04-13 12:08:00,
2013-04-13 07:14:00,34.0,29.0,29.91,WSW,252,9.0,-999.0,82,-99.99,,,-99.99,,2013-04-13 12:14:00,
2013-04-13 07:24:00,34.0,29.0,29.92,WSW,250,9.0,-999.0,82,-99.99,,,-99.99,,2013-04-13 12:24:00,
2013-04-13 07:35:00,34.0,29.0,29.92,WSW,251,10.0,-999.0,82,-99.99,,,-99.99,,2013-04-13 12:35:00,
2013-04-13 07:46:00,34.0,29.0,29.92,WSW,251,10.0,-999.0,82,-99.99,,,-99.99,,2013-04-13 12:46:00,
2013-04-13 07:55:00,34.0,29.0,29.93,WSW,253,11.0,-999.0,83,-99.99,,,-99.99,,2013-04-13 12:55:00,
2013-04-13 08:05:00,34.0,29.0,29.93,WSW,248,11.0,-999.0,82,-99.99,,,-99.99,,2013-04-13 13:05:00,
2013-04-13 08:14:00,34.0,29.0,29.93,WSW,248,11.0,-999.0,82,-99.99,,,-99.99,,2013-04-13 13:14:00,
2013-04-13 08:26:00,34.0,29.0,29.94,West,259,10.0,-999.0,83,-99.99,,,-99.99,,2013-04-13 13:26:00,
2013-04-13 08:34:00,34.0,29.0,29.94,WSW,257,10.0,-999.0,83,-99.99,,,-99.99,,2013-04-13 13:34:00,
2013-04-13 08:55:00,35.0,30.0,29.94,WSW,258,10.0,-999.0,83,-99.99,,,-99.99,,2013-04-13 13:55:00,
2013-04-13 09:04:00,35.0,30.0,29.95,WSW,239,12.0,-999.0,82,-99.99,,,-99.99,,2013-04-13 14:04:00,
2013-04-13 09:14:00,35.0,30.0,29.95,WSW,239,12.0,-999.0,82,-99.99,,,-99.99,,2013-04-13 14:14:00,
2013-04-13 09:23:00,35.0,30.0,29.95,WSW,255,14.0,-999.0,82,-99.99,,,-99.99,,2013-04-13 14:23:00,
2013-04-13 09:35:00,35.0,30.0,29.96,WSW,242,12.0,-999.0,82,-99.99,,,-99.99,,2013-04-13 14:35:00,
2013-04-13 09:45:00,35.0,30.0,29.96,WSW,242,12.0,-999.0,82,-99.99,,,-99.99,,2013-04-13 14:45:00,
2013-04-13 09:59:00,35.0,30.0,29.96,WSW,244,12.0,-999.0,81,-99.99,,,-99.99,,2013-04-13 14:59:00,
2013-04-13 10:14:00,36.0,30.0,29.96,West,273,13.0,-999.0,80,-99.99,,,-99.99,,2013-04-13 15:14:00,
2013-04-13 10:35:00,36.0,29.0,29.96,WNW,287,12.0,-999.0,77,-99.99,,,-99.99,,2013-04-13 15:35:00,
2013-04-13 10:44:00,36.0,29.0,29.96,WNW,287,12.0,-999.0,77,-99.99,,,-99.99,,2013-04-13 15:44:00,
2013-04-13 10:57:00,37.0,30.0,29.97,WSW,258,10.0,-999.0,75,-99.99,,,-99.99,,2013-04-13 15:57:00,
2013-04-13 11:05:00,37.0,28.0,29.97,WNW,286,14.0,-999.0,69,-99.99,,,-99.99,,2013-04-13 16:05:00,
2013-04-13 11:14:00,37.0,28.0,29.97,WNW,286,14.0,-999.0,69,-99.99,,,-99.99,,2013-04-13 16:14:00,
2013-04-13 11:24:00,38.0,29.0,29.97,West,265,12.0,-999.0,69,-99.99,,,-99.99,,2013-04-13 16:24:00,
2013-04-13 11:35:00,38.0,31.0,29.98,WSW,248,14.0,-999.0,75,-99.99,,,-99.99,,2013-04-13 16:35:00,
2013-04-13 11:45:00,38.0,31.0,29.98,WSW,248,14.0,-999.0,75,-99.99,,,-99.99,,2013-04-13 16:45:00,
2013-04-13 11:55:00,38.0,31.0,29.98,WNW,284,13.0,-999.0,76,-99.99,,,-99.99,,2013-04-13 16:55:00,
2013-04-13 12:05:00,39.0,32.0,29.98,WNW,303,12.0,-999.0,76,-99.99,,,-99.99,,2013-04-13 17:05:00,
2013-04-13 12:20:00,39.0,32.0,29.98,WNW,303,12.0,-999.0,76,-99.99,,,-99.99,,2013-04-13 17:20:00,
2013-04-13 12:36:00,40.0,32.0,29.98,WSW,246,12.0,-999.0,73,-99.99,,,-99.99,,2013-04-13 17:36:00,
2013-04-13 12:43:00,40.0,32.0,29.98,WSW,246,12.0,-999.0,73,-99.99,,,-99.99,,2013-04-13 17:43:00,
2013-04-13 13:03:00,40.0,31.0,29.98,West,275,12.0,-999.0,69,-99.99,,,-99.99,,2013-04-13 18:03:00,
2013-04-13 13:24:00,41.0,32.0,29.98,WSW,245,12.0,-999.0,70,-99.99,,,-99.99,,2013-04-13 18:24:00,
2013-04-13 13:32:00,41.0,32.0,29.97,WSW,246,12.0,-999.0,71,-99.99,,,-99.99,,2013-04-13 18:32:00,
2013-04-13 13:42:00,41.0,32.0,29.97,WSW,246,12.0,-999.0,71,-99.99,,,-99.99,,2013-04-13 18:42:00,
2013-04-13 13:53:00,42.0,33.0,29.97,WNW,292,13.0,-999.0,70,-99.99,,,-99.99,,2013-04-13 18:53:00,
2013-04-13 14:02:00,42.0,32.0,29.98,West,262,10.0,-999.0,68,-99.99,,,-99.99,,2013-04-13 19:02:00,
2013-04-13 14:12:00,42.0,32.0,29.98,West,262,10.0,-999.0,68,-99.99,,,-99.99,,2013-04-13 19:12:00,
2013-04-13 14:22:00,43.0,33.0,29.97,West,268,12.0,-999.0,67,-99.99,,,-99.99,,2013-04-13 19:22:00,
2013-04-13 14:32:00,44.0,34.0,29.97,WSW,245,10.0,-999.0,69,-99.99,,,-99.99,,2013-04-13 19:32:00,
2013-04-13 14:42:00,44.0,34.0,29.97,WSW,245,10.0,-999.0,69,-99.99,,,-99.99,,2013-04-13 19:42:00,
2013-04-13 14:53:00,44.0,34.0,29.97,West,261,12.0,-999.0,67,-99.99,,,-99.99,,2013-04-13 19:53:00,
2013-04-13 15:02:00,45.0,36.0,29.96,West,263,9.0,-999.0,70,-99.99,,,-99.99,,2013-04-13 20:02:00,
2013-04-13 15:12:00,45.0,36.0,29.96,West,263,9.0,-999.0,70,-99.99,,,-99.99,,2013-04-13 20:12:00,
2013-04-13 15:22:00,46.0,37.0,29.96,NW,309,11.0,-999.0,72,-99.99,,,-99.99,,2013-04-13 20:22:00,
2013-04-13 15:42:00,46.0,35.0,29.96,West,279,11.0,-999.0,65,-99.99,,,-99.99,,2013-04-13 20:42:00,
2013-04-13 15:52:00,46.0,35.0,29.95,West,259,9.0,-999.0,65,-99.99,,,-99.99,,2013-04-13 20:52:00,
2013-04-13 16:02:00,46.0,35.0,29.95,West,267,10.0,-999.0,66,-99.99,,,-99.99,,2013-04-13 21:02:00,
2013-04-13 16:12:00,46.0,35.0,29.95,West,267,10.0,-999.0,66,-99.99,,,-99.99,,2013-04-13 21:12:00,
2013-04-13 16:22:00,46.0,35.0,29.95,West,273,9.0,-999.0,66,-99.99,,,-99.99,,2013-04-13 21:22:00,
2013-04-13 16:32:00,47.0,36.0,29.95,NW,309,6.0,-999.0,65,-99.99,,,-99.99,,2013-04-13 21:32:00,
2013-04-13 16:43:00,47.0,36.0,29.95,NW,309,6.0,-999.0,65,-99.99,,,-99.99,,2013-04-13 21:43:00,
2013-04-13 16:53:00,46.0,35.0,29.95,West,265,8.0,-999.0,64,-99.99,,,-99.99,,2013-04-13 21:53:00,
2013-04-13 17:03:00,46.0,35.0,29.95,West,265,8.0,-999.0,64,-99.99,,,-99.99,,2013-04-13 22:03:00,
2013-04-13 17:12:00,46.0,35.0,29.95,West,265,8.0,-999.0,64,-99.99,,,-99.99,,2013-04-13 22:12:00,
2013-04-13 17:22:00,47.0,36.0,29.95,West,268,8.0,-999.0,65,-99.99,,,-99.99,,2013-04-13 22:22:00,
2013-04-13 17:33:00,47.0,35.0,29.95,WSW,242,7.0,-999.0,62,-99.99,,,-99.99,,2013-04-13 22:33:00,
2013-04-13 17:42:00,47.0,35.0,29.95,WSW,242,7.0,-999.0,62,-99.99,,,-99.99,,2013-04-13 22:42:00,
2013-04-13 17:53:00,47.0,35.0,29.95,West,268,7.0,-999.0,64,-99.99,,,-99.99,,2013-04-13 22:53:00,
2013-04-13 18:02:00,47.0,35.0,29.95,WSW,251,6.0,-999.0,62,-99.99,,,-99.99,,2013-04-13 23:02:00,
2013-04-13 18:12:00,47.0,35.0,29.95,WSW,251,6.0,-999.0,62,-99.99,,,-99.99,,2013-04-13 23:12:00,
2013-04-13 18:22:00,47.0,35.0,29.95,West,270,4.0,-999.0,63,-99.99,,,-99.99,,2013-04-13 23:22:00,
2013-04-13 18:32:00,47.0,34.0,29.95,West,263,5.0,-999.0,61,-99.99,,,-99.99,,2013-04-13 23:32:00,
2013-04-13 18:42:00,47.0,34.0,29.95,West,263,5.0,-999.0,61,-99.99,,,-99.99,,2013-04-13 23:42:00,
2013-04-13 18:53:00,47.0,35.0,29.94,WSW,248,3.0,-999.0,63,-99.99,,,-99.99,,2013-04-13 23:53:00,
2013-04-13 19:02:00,47.0,35.0,29.95,West,279,2.0,-999.0,64,-99.99,,,-99.99,,2013-04-14 00:02:00,
2013-04-13 19:12:00,47.0,35.0,29.95,West,279,2.0,-999.0,64,-99.99,,,-99.99,,2013-04-14 00:12:00,
2013-04-13 19:22:00,46.0,35.0,29.94,West,260,2.0,-999.0,66,-99.99,,,-99.99,,2013-04-14 00:22:00,
2013-04-13 19:32:00,46.0,36.0,29.94,West,260,1.0,-999.0,69,-99.99,,,-99.99,,2013-04-14 00:32:00,
2013-04-13 19:42:00,46.0,36.0,29.94,West,260,1.0,-999.0,69,-99.99,,,-99.99,,2013-04-14 00:42:00,
2013-04-13 19:52:00,46.0,36.0,29.94,West,260,1.0,-999.0,69,-99.99,,,-99.99,,2013-04-14 00:52:00,
2013-04-13 20:02:00,46.0,35.0,29.94,West,260,0.0,-999.0,66,-99.99,,,-99.99,,2013-04-14 01:02:00,
2013-04-13 20:12:00,46.0,35.0,29.94,West,260,0.0,-999.0,66,-99.99,,,-99.99,,2013-04-14 01:12:00,
2013-04-13 20:22:00,45.0,35.0,29.93,West,260,0.0,-999.0,67,-99.99,,,-99.99,,2013-04-14 01:22:00,
2013-04-13 20:32:00,45.0,36.0,29.94,West,260,0.0,-999.0,70,-99.99,,,-99.99,,2013-04-14 01:32:00,
2013-04-13 20:42:00,45.0,36.0,29.94,West,260,0.0,-999.0,70,-99.99,,,-99.99,,2013-04-14 01:42:00,
2013-04-13 20:53:00,45.0,37.0,29.94,West,260,0.0,-999.0,72,-99.99,,,-99.99,,2013-04-14 01:53:00,
2013-04-13 21:02:00,44.0,37.0,29.94,West,260,0.0,-999.0,76,-99.99,,,-99.99,,2013-04-14 02:02:00,
2013-04-13 21:12:00,44.0,37.0,29.94,West,260,0.0,-999.0,76,-99.99,,,-99.99,,2013-04-14 02:12:00,
2013-04-13 21:22:00,44.0,37.0,29.94,West,260,0.0,-999.0,76,-99.99,,,-99.99,,2013-04-14 02:22:00,
2013-04-13 21:32:00,44.0,37.0,29.94,West,260,0.0,-999.0,76,-99.99,,,-99.99,,2013-04-14 02:32:00,
2013-04-13 21:42:00,44.0,37.0,29.94,West,260,0.0,-999.0,76,-99.99,,,-99.99,,2013-04-14 02:42:00,
2013-04-13 21:53:00,44.0,37.0,29.95,West,260,0.0,-999.0,77,-99.99,,,-99.99,,2013-04-14 02:53:00,
2013-04-13 22:02:00,44.0,37.0,29.95,West,260,0.0,-999.0,76,-99.99,,,-99.99,,2013-04-14 03:02:00,
2013-04-13 22:12:00,44.0,37.0,29.95,West,260,0.0,-999.0,76,-99.99,,,-99.99,,2013-04-14 03:12:00,
2013-04-13 22:22:00,44.0,37.0,29.95,West,260,0.0,-999.0,76,-99.99,,,-99.99,,2013-04-14 03:22:00,
2013-04-13 22:33:00,43.0,36.0,29.96,West,260,1.0,-999.0,77,-99.99,,,-99.99,,2013-04-14 03:33:00,
2013-04-13 22:42:00,43.0,36.0,29.96,West,260,1.0,-999.0,77,-99.99,,,-99.99,,2013-04-14 03:42:00,
2013-04-13 22:53:00,43.0,37.0,29.95,West,260,2.0,-999.0,79,-99.99,,,-99.99,,2013-04-14 03:53:00,
2013-04-13 23:02:00,43.0,37.0,29.96,West,260,1.0,-999.0,78,-99.99,,,-99.99,,2013-04-14 04:02:00,
2013-04-13 23:12:00,43.0,37.0,29.96,West,260,1.0,-999.0,78,-99.99,,,-99.99,,2013-04-14 04:12:00,
2013-04-13 23:23:00,43.0,36.0,29.96,West,269,0.0,-999.0,77,-99.99,,,-99.99,,2013-04-14 04:23:00,
2013-04-13 23:32:00,43.0,36.0,29.96,ENE,57,2.0,-999.0,77,-99.99,,,-99.99,,2013-04-14 04:32:00,
2013-04-13 23:42:00,43.0,36.0,29.96,ENE,57,2.0,-999.0,77,-99.99,,,-99.99,,2013-04-14 04:42:00,
2013-04-13 23:52:00,43.0,37.0,29.96,ENE,57,1.0,-999.0,78,-99.99,,,-99.99,,2013-04-14 04:52:00,